Home > Time Zones > World Clock > Weather > India > Surat > Past weeks

Flag for India Weather past 2 weeks in Surat, Gujarat, India

Now
99 °F

Clear.


Feels Like: 95 °F
Forecast: 76 / 92 °F
Wind: 6 mph from Northwest

Location: Ahmadabad Airport

Current Time: Mar 31, 2015 at 3:20:59 PM

Latest Report: Mar 31, 2015 at 1:40 PM


Visibility: 4 mi

Pressure: 29.80 "Hg

Humidity: 18%

Dew point: 48 °F

Location of SuratLocation

Historic Weather in Surat — Graph

°F

Surat temperature yesterday

Maximum temperature yesterday: 100 °F (at 2:40 PM)
Minimum temperature yesterday: 77 °F (at 5:40 AM)
Average temperature yesterday: 88 °F

Past Weeks' High & Low Weather Summary

 TemperatureHumidityPressure
High111 °F (Mar 25, 4:40 PM)70% (Mar 27, 7:40 AM)30.07 "Hg (Mar 27, 7:40 AM)
Low64 °F (Mar 17, 5:40 AM)13% (Mar 23, 3:40 PM)29.68 "Hg (Mar 30, 4:40 PM)
Average88 °F33%29.85 "Hg
* Reported Mar 16 1:40 PM — Mar 31 1:40 PM, Surat, Weather by CustomWeather, © 2015

Note: Actual official high and low records may vary slightly from our data, if they occured in-between our weather recording intervals... More about our weather records

Advertising

Surat weather history for previous 24 hours

 ConditionsComfort  
Time TempWeatherWind HumidityBarometerVisibility
1:40 PM
Tue, Mar 31
99 °FClear.6 mph18%29.80 "Hg4 mi
12:40 PM95 °FClear.6 mph23%29.83 "Hg4 mi
11:40 AM93 °FClear.6 mph24%29.86 "Hg4 mi
10:40 AM88 °FClear.5 mph33%29.86 "Hg4 mi
9:40 AM84 °FClear.9 mph35%29.86 "Hg3 mi
7:40 AM73 °FClear.No wind47%29.83 "Hg2 mi
6:40 AM72 °FClear.2 mph50%29.80 "Hg2 mi
5:40 AM73 °FClear.5 mph44%29.77 "Hg2 mi
4:40 AM75 °FClear.5 mph34%29.77 "Hg2 mi
3:40 AM77 °FClear.5 mph32%29.77 "Hg2 mi
2:40 AM79 °FClear.3 mph30%29.77 "Hg2 mi
1:40 AM77 °FClear.5 mph26%29.77 "Hg2 mi
12:40 AM81 °FClear.6 mph20%29.80 "Hg2 mi
11:40 PM
Mon, Mar 30
82 °FClear.6 mph20%29.80 "Hg2 mi
10:40 PM86 °FClear.5 mph19%29.77 "Hg2 mi
9:40 PM86 °FClear.5 mph17%29.77 "Hg2 mi
8:40 PM90 °FClear.6 mph15%29.74 "Hg2 mi
7:40 PM91 °FClear.7 mph18%29.74 "Hg2 mi
5:40 PM99 °FClear.12 mph16%29.68 "Hg4 mi
4:40 PM100 °FClear.13 mph16%29.68 "Hg4 mi
3:40 PM100 °FClear.14 mph16%29.71 "Hg4 mi
Weather by CustomWeather, © 2015

See weather overviewHow to use our weather pages